Location: Hysolar-Haus
(48.7436°N, 9.0965°E)
Time: 14:58:40
(UTC+00:00)

Daily predictions for brighter satellites

Satellite Brightness Start Highest point End
(mag) Time Altitude Azimuth Time Altitude Azimuth Time Altitude Azimuth
Cosmos 1486 Rocket 4.1 17:43:35 10° NNW 17:48:52 88° ENE 17:54:06 10° SSE
Cosmos 1315 Rocket 3.0 17:45:44 10° NNW 17:49:52 82° W 17:54:00 10° S
SPOT 3 Rocket 3.7 17:45:26 10° SE 17:50:25 52° ENE 17:55:26 10° N
CZ-2C R/B 3.2 17:49:43 10° SSE 17:52:47 35° E 17:57:04 10° NNE
CENTAUR R/B 3.7 17:47:02 10° WSW 17:53:08 46° NW 18:00:12 10° NE
Cosmos 2360 Rocket 3.7 17:49:22 10° N 17:53:34 21° NE 17:57:45 10° E
Cosmos 1833 Rocket 2.8 17:48:00 10° SSW 17:53:38 89° WNW 17:59:19 10° NNE
Aureole 2 Rocket 3.6 17:50:39 10° N 17:53:53 28° ENE 17:56:55 10° ESE
FREGAT/IRIS 3.2 17:52:12 10° SE 17:54:55 35° ENE 17:57:39 10° N
Cosmos 1626 Rocket 3.8 17:50:39 10° N 17:55:01 51° ENE 17:59:18 10° SSE
SKYMED 2 3.9 17:51:01 10° N 17:55:23 72° WNW 17:59:41 10° SSW
Ariane Rocket 4.0 17:51:40 10° S 17:56:36 52° W 18:01:35 10° NNW
SJ-6B 3.8 17:53:26 10° SE 17:56:39 27° ENE 17:59:57 10° N
Cosmos 1980 Rocket 2.3 17:52:09 10° NNW 17:57:51 87° WSW 18:03:28 10° SSE
Cosmos 1544 Rocket 3.5 17:55:38 10° S 17:59:59 82° E 18:04:24 10° NNE
BREEZE-M DEB (TANK) 3.9 17:58:09 10° WSW 18:02:19 77° SSE 18:18:11 10° ENE
H-2A R/B 4.1 18:02:54 10° S 18:06:39 45° W 18:10:24 10° NNW
Cosmos 2034 Rocket 4.0 18:01:44 10° N 18:07:58 89° E 18:14:13 10° S
GP-B 3.5 18:10:11 10° NNE 18:14:27 42° E 18:18:40 10° SSE
Iridium 96 4.3 18:11:19 10° N 18:14:46 79° W 18:17:45 10° S
USA 234 3.6 18:09:05 10° E 18:15:26 55° NNE 18:21:48 10° NW
YAOGAN 6 2.8 18:14:35 10° SSE 18:18:01 47° ENE 18:21:27 10° N
SL-27 R/B 4.4 18:16:14 10° SW 18:19:15 32° WNW 18:22:18 10° N
Cosmos 2219 Rocket 4.2 18:16:34 10° N 18:19:28 14° NNE 18:22:21 10° ENE
Cosmos 2333 Rocket 4.2 18:16:48 10° N 18:19:37 14° NNE 18:22:24 10° ENE
Cosmos 1707 2.7 18:15:50 10° N 18:19:42 87° W 18:23:32 10° S
MTI 4.4 18:16:54 10° NNE 18:19:49 32° E 18:22:44 10° SSE
SL-16 R/B 2.4 18:15:12 10° NNW 18:20:47 54° ENE 18:26:16 10° SE
ATLAS 3B R/B 4.5 18:15:59 10° WNW 18:21:29 25° NNW 18:26:53 10° NE
CZ-4 R/B 4.4 18:19:28 10° SW 18:22:22 19° W 18:25:14 10° NW
Cosmos 1634 Rocket 4.2 18:16:33 10° N 18:22:45 53° ENE 18:28:50 10° SSE
Tsikada Rocket 3.9 18:18:14 10° S 18:24:22 72° E 18:30:37 10° NNE
Cosmos 1939 Rocket 3.2 18:22:40 10° SE 18:26:39 47° ENE 18:30:36 10° N
Cosmos 2322 Rocket 2.4 18:21:31 10° NNW 18:27:09 56° ENE 18:32:18 12° SE
ISS -2.0 18:26:39 10° S 18:28:44 16° SE 18:28:51 16° SE
BREEZE-M DEB (TANK) 4.4 18:11:22 10° W 18:29:47 86° N 18:33:07 17° E
COSMOS 2487 2.6 18:27:10 10° S 18:30:32 49° ESE 18:33:57 10° NNE
Cosmos 1503 Rocket 4.3 18:30:37 10° NNW 18:35:54 70° WSW 18:41:05 10° SSE
BREEZE-M DEB (TANK) 3.8 18:33:12 10° SSW 18:40:11 26° SSE 18:41:42 21° SE
Cosmos 1674 3.7 18:37:27 10° N 18:40:51 29° ENE 18:42:00 24° ESE
Lacrosse 5 3.2 18:38:48 10° WNW 18:43:22 32° N 18:47:27 12° ENE
In-Cosmos 22 4.1 18:38:42 10° N 18:44:15 80° ENE 18:49:54 10° SSE
Iridium 2 3.5 18:42:05 10° N 18:45:54 75° E 18:49:40 10° S
Cosmos 1992 Rocket 3.9 18:40:53 10° SSW 18:46:05 72° ESE 18:51:20 10° NNE
Cosmos 2237 Rocket 4.3 18:47:11 10° N 18:49:25 12° NNE 18:51:39 10° NE
Meteor 2-5 Rocket 3.9 18:43:41 10° NNW 18:49:40 84° W 18:55:37 10° S
CZ-2D R/B 3.9 18:46:23 10° S 18:50:13 56° W 18:54:04 10° NNW
Abrixas rocket 2.0 18:47:04 10° W 18:50:13 86° S 18:51:16 38° E
COSMOS 2455 3.2 18:45:30 10° S 18:51:00 39° ESE 18:56:32 10° NE
Cosmos 1508 4.5 18:49:25 10° S 18:52:23 82° E 18:55:33 10° N
Cosmos 1544 3.5 18:48:47 10° SSW 18:52:28 67° W 18:56:11 10° N
Cosmos 2279 Rocket 4.1 18:47:49 10° N 18:53:54 54° ENE 18:58:52 16° SSE
Cosmos 371 Rocket 3.7 18:51:02 10° S 18:55:30 37° ESE 19:00:00 10° NE
SL-24 R/B - RUBIN 2 3.6 18:52:07 10° SSW 18:56:42 56° SE 19:01:02 10° NE
Meteor 1-22 Rocket 4.4 18:50:57 10° S 18:56:50 57° E 19:02:34 10° NNE
Landsat 4 4.2 18:53:42 10° NNE 18:57:11 36° E 18:57:32 35° ESE
Resurs 01 Rocket 1.8 18:56:33 26° SE 18:58:47 52° ENE 19:03:06 10° N
Envisat 4.3 18:55:48 10° SSW 19:00:35 42° W 19:05:26 10° NNW
Cosmos 1606 Rocket 3.7 18:56:47 10° SSE 19:00:58 50° E 19:05:15 10° NNE
Cosmos 1825 Rocket 3.5 18:57:10 10° N 19:01:39 80° E 19:05:04 17° SSE
NOAA 11 4.1 18:58:17 13° SSE 19:03:15 77° ENE 19:08:43 10° NNW
Meteor 2-20 4.4 18:57:29 10° S 19:03:34 89° E 19:09:41 10° N
Cosmos 1726 Rocket 3.7 19:05:27 27° SSE 19:07:27 47° E 19:11:40 10° NNE
Meteor 1-24 Rocket 3.9 19:02:21 10° NNW 19:08:25 87° W 19:14:28 10° S
ERS-2 4.2 19:10:40 15° NE 19:10:40 15° NE 19:12:04 10° NNE
ARGOS 3.6 19:10:30 32° ESE 19:12:14 42° ENE 19:17:19 10° N
Cosmos 2180 Rocket 4.5 19:07:44 10° N 19:13:56 62° ENE 19:17:34 25° SSE
SJ-11-01 4.3 19:11:36 19° SSE 19:14:59 88° WSW 19:19:47 10° NNW
USA 186 2.7 19:14:54 21° SSW 19:16:42 45° W 19:19:37 10° NNW
H-2A R/B 2.4 19:19:46 37° E 19:20:34 40° ENE 19:25:17 10° N
deb Kosmos-1763 4.2 19:18:38 10° SSW 19:22:22 74° WNW 19:26:08 10° NNE
USA 267 3.2 19:16:00 10° ENE 19:22:33 71° SE 19:29:04 10° SW
Cosmos 1766 3.4 19:18:52 10° SSW 19:22:47 75° W 19:26:47 10° N
Cosmos 968 Rocket 4.5 19:18:19 10° NW 19:23:14 44° WSW 19:28:08 10° S
Cosmos 1758 Rocket 3.8 19:18:53 10° NNW 19:23:18 69° W 19:26:05 22° S
Spot 2 Rocket 3.4 19:22:29 38° SE 19:24:21 69° ENE 19:29:23 10° N
Cosmos 2082 Rocket 4.3 19:25:13 10° WSW 19:29:56 26° NW 19:34:39 10° NNE
Cosmos 1777 Rocket 3.9 19:26:27 10° NNW 19:31:48 84° ENE 19:33:30 44° SSE
ERS-1 Rocket 3.9 19:32:39 30° ENE 19:32:39 30° ENE 19:36:51 10° N
Resurs 1-3 3.8 19:30:25 30° S 19:32:32 67° WSW 19:36:55 10° NNW
Cosmos 1953 Rocket 3.8 19:29:06 10° NNW 19:33:30 70° W 19:35:25 33° S
EO 1 Del DPAF 3.8 19:31:03 10° N 19:34:48 58° WNW 19:38:33 10° SSW
BREEZE M DEB (TANK) 3.8 19:31:53 10° W 19:35:28 83° N 19:39:33 31° E
Meteor 2-11 Rocket 4.3 19:31:54 10° N 19:38:00 86° E 19:40:58 33° SSE
Cosmos 2360 Rocket 2.1 19:32:44 10° NNW 19:38:26 85° ENE 19:40:07 48° SSE
Cosmos 2228 2.8 19:39:08 70° S 19:39:37 85° E 19:43:54 10° N
USA 229 DEB 3.5 19:35:42 10° SSW 19:42:17 66° SE 19:49:09 10° NE
USA 229 3.6 19:35:48 10° SSW 19:42:23 65° SE 19:49:15 10° NE
Cosmos 2058 Rocket 3.0 19:49:45 81° S 19:49:58 89° SE 19:54:31 10° N
COSMOS 2428 3.0 19:47:35 10° NNW 19:53:12 50° NE 19:53:36 49° ENE
SL-16 R/B 4.2 19:51:36 10° N 19:54:41 15° NNE 19:55:52 14° NE
USA 234 3.3 19:56:27 48° SSE 19:58:21 72° SW 20:04:56 10° WNW
Timation 2 Rocket 4.2 19:55:31 10° SSW 20:02:24 79° WNW 20:09:20 10° NNE
SL-16 R/B 3.9 19:59:48 10° NW 20:04:35 29° WSW 20:08:09 15° SSW
ISS -0.7 20:01:32 10° WSW 20:01:35 10° WSW 20:01:35 10° WSW
Cosmos 2219 Rocket 2.6 19:59:22 10° NNW 20:04:51 48° NE 20:04:51 48° NE
Cosmos 2333 Rocket 2.7 19:59:56 10° NNW 20:05:23 46° NE 20:05:23 46° NE
BREEZE-M DEB (TANK) 3.7 20:05:56 10° SW 20:10:26 58° E 20:21:39 10° ENE
Cosmos 2322 Rocket 3.9 20:06:07 10° NW 20:10:53 28° WSW 20:14:09 17° SSW
Cosmos 1953 4.3 20:14:12 22° N 20:14:12 22° N 20:15:41 10° N
Cosmos 1626 4.3 20:08:45 10° N 20:10:04 20° N 20:10:04 20° N
Terra 3.6 20:14:44 21° NNE 20:14:44 21° NNE 20:16:56 10° N
ATLAS 3B R/B 4.3 20:09:07 10° NW 20:14:29 24° NNE 20:17:36 18° NE
Cosmos 2322 3.7 20:10:03 10° NNW 20:15:42 73° WSW 20:16:04 70° SW
MetOp-B 4.1 20:21:16 76° WSW 20:21:17 76° WSW 20:26:41 10° NNW
Cosmos 1898 Rocket 4.2 20:18:25 10° NNW 20:22:21 44° NNE 20:22:21 44° NNE
Thor Agena Rocket 4.1 20:19:02 10° N 20:24:13 56° WNW 20:26:29 32° SW
SPOT 5 4.1 20:27:04 32° NNE 20:27:04 32° NNE 20:29:50 10° N
Lacrosse 5 2.6 20:22:17 10° NW 20:26:38 47° N 20:26:38 47° N
Cosmos 2237 Rocket 3.1 20:29:48 10° NNW 20:34:09 38° NNE 20:34:09 38° NNE
Resurs 01 Rocket 3.9 20:34:08 16° WSW 20:35:36 19° W 20:38:44 10° NW
COSMOS 2455 3.7 20:31:02 10° WSW 20:36:51 49° NW 20:42:42 10° NNE
Nadezhda 4 Rocket 4.2 20:35:54 52° SW 20:37:12 65° WNW 20:43:22 10° N
BREEZE-M R/B 3.7 20:32:46 10° WSW 20:40:09 57° WSW 20:40:09 57° WSW
SJ 16-02 3.8 20:47:40 10° N 20:48:51 16° N 20:48:51 16° N
NOSS 0 Rocket 4.2 20:46:10 10° NNW 20:51:20 61° N 20:51:20 61° N
ARGOS 4.5 20:52:01 32° WSW 20:52:35 33° W 20:57:26 10° NNW
Cosmos 1092 Rocket 4.1 20:54:43 69° NW 20:54:43 69° NW 21:00:38 10° N
H-2A R/B 3.5 21:00:24 30° W 21:00:24 30° W 21:04:33 10° NNW
USA 267 3.7 21:02:28 31° NE 21:05:28 56° NNW 21:11:49 10° W
Cosmos 1607 4.5 21:00:38 10° NW 21:05:46 54° WNW 21:05:46 54° WNW
ERS-1 Rocket 4.5 21:12:40 33° WNW 21:12:40 33° WNW 21:15:56 10° NNW
CZ-2C R/B 4.3 21:19:31 41° NNW 21:19:31 41° NNW 21:23:10 10° NNW
Cosmos 2360 Rocket 4.3 21:18:12 10° WNW 21:21:40 17° W 21:21:54 17° W
COSMOS 2428 4.4 21:32:13 10° NW 21:35:36 27° WNW 21:35:36 27° WNW
CENTAUR R/B 4.3 21:32:17 10° NW 21:38:47 32° NNE 21:41:19 27° NE
SL-16 R/B 3.8 21:34:38 10° NNW 21:37:44 31° N 21:37:44 31° N
Cosmos 2219 Rocket 4.0 21:43:41 10° NW 21:46:34 25° WNW 21:46:34 25° WNW
Cosmos 2333 Rocket 4.0 21:44:29 10° NW 21:47:24 26° WNW 21:47:24 26° WNW
Terra 4.3 21:53:37 19° NW 21:53:37 19° NW 21:55:07 10° NNW
ATLAS 3B R/B 3.7 22:00:14 10° NW 22:04:49 40° N 22:04:49 40° N
Cosmos 2237 Rocket 4.3 22:14:01 10° NW 22:15:58 21° NW 22:15:58 21° NW
ATLAS 2AS CENTAUR R/B 4.3 22:51:58 31° NE 22:51:58 31° NE 22:55:51 10° NE
USA 267 4.5 22:49:51 35° NW 22:49:51 35° NW 22:53:58 10° WNW
Cosmos 2297 Rocket 4.4 23:28:30 21° N 23:28:30 21° N 23:30:43 10° NNE
CENTAUR R/B 3.8 23:23:10 10° NW 23:28:27 47° NNW 23:28:27 47° NNW
SL-16 R/B 4.4 23:37:56 23° NE 23:37:56 23° NE 23:42:21 10° N
Cosmos 2227 Rocket 4.4 23:53:48 20° NNW 23:53:48 20° NNW 23:56:23 10° N
